Starlink 6182

operational
NORAD ID: 56878 Int'l Des: 2023-083 Owner: SPXS Country: US Constellation: starlink
LEOCIRCULAR

About Starlink 6182

Description loading...

Live Position

Loading 3D Globe...

Upcoming Passes

Altitude History

Altitude vs Time

uPlot chart will show altitude changes over time

Two-Line Element Set

1 56878U 23083C 25346.92054386 -.00000702 00000-0 -36921-4 0 9993
2 56878 43.0019 193.6420 0001045 266.3447 93.7276 15.02531787138612
Epoch: Dec 12, 2025 • Age: 10 hours

Current Status

Altitude 559.8 km
Velocity 7.59 km/s
Sub-Earth Point 27.43°N, 24.98°E
Launch Date Jun 12, 2023
Age 2.5 years
Type internet

Technical Details

Classification Payload
Mass 305.00 kg
Dry Mass 290.00 kg
Total Mass 305.00 kg
Length 0.20 m
Diameter 2.80 m
Span 9.00 m
Shape Box + pan
Manufacturer SPXS
Bus Type Starlink
Phase Status In Orbit
Owner/State SPXS/US

Large Constellations

Loading constellations...